Time,TemperatureF,DewpointF,PressureIn,WindDirection,WindDirectionDegrees,WindSpeedMPH,WindSpeedGustMPH,Humidity,HourlyPrecipIn,Conditions,Clouds,dailyrainin,SoftwareType,DateUTC
2013-06-12 02:00:00,44.0,-99.9,-100.00,North,-999,-999.0,-999.0,-999,-99.99,,,1.00,,2013-06-12 10:00:00,
2013-06-12 02:43:00,44.0,-99.9,-100.00,North,-999,-999.0,-999.0,-999,-99.99,,,1.00,,2013-06-12 10:43:00,
2013-06-12 02:53:00,44.0,-99.9,-100.00,North,-999,-999.0,-999.0,-999,-99.99,,,1.00,,2013-06-12 10:53:00,
2013-06-12 03:00:00,42.0,-99.9,-100.00,North,-999,-999.0,-999.0,-999,0.00,,,0.90,,2013-06-12 11:00:00,
2013-06-12 03:43:00,42.0,-99.9,-100.00,North,-999,-999.0,-999.0,-999,0.00,,,0.90,,2013-06-12 11:43:00,
2013-06-12 03:54:00,42.0,-99.9,-100.00,North,-999,-999.0,-999.0,-999,0.00,,,0.90,,2013-06-12 11:54:00,
2013-06-12 10:43:00,53.0,-99.9,-100.00,North,-999,-999.0,-999.0,-999,-99.99,,,1.00,,2013-06-12 18:43:00,
2013-06-12 11:00:00,60.0,-99.9,-100.00,North,-999,-999.0,-999.0,-999,-99.99,,,0.90,,2013-06-12 19:00:00,
2013-06-12 11:33:00,60.0,-99.9,-100.00,North,-999,-999.0,-999.0,-999,-99.99,,,0.90,,2013-06-12 19:33:00,
2013-06-12 11:43:00,60.0,-99.9,-100.00,North,-999,-999.0,-999.0,-999,-99.99,,,0.90,,2013-06-12 19:43:00,
2013-06-12 11:52:00,60.0,-99.9,-100.00,North,-999,-999.0,-999.0,-999,-99.99,,,0.90,,2013-06-12 19:52:00,
2013-06-12 12:00:00,65.0,-99.9,-100.00,North,-999,-999.0,-999.0,-999,0.10,,,1.00,,2013-06-12 20:00:00,
2013-06-12 12:43:00,65.0,-99.9,-100.00,North,-999,-999.0,-999.0,-999,0.10,,,1.00,,2013-06-12 20:43:00,
2013-06-12 12:54:00,65.0,-99.9,-100.00,North,-999,-999.0,-999.0,-999,0.10,,,1.00,,2013-06-12 20:54:00,
2013-06-12 13:00:00,67.0,-99.9,-100.00,North,-999,-999.0,-999.0,-999,0.00,,,0.90,,2013-06-12 21:00:00,
2013-06-12 13:43:00,67.0,-99.9,-100.00,North,-999,-999.0,-999.0,-999,0.00,,,0.90,,2013-06-12 21:43:00,
2013-06-12 13:53:00,67.0,-99.9,-100.00,North,-999,-999.0,-999.0,-999,0.00,,,0.90,,2013-06-12 21:53:00,
2013-06-12 14:00:00,69.0,-99.9,-100.00,North,-999,-999.0,-999.0,-999,0.10,,,-99.99,,2013-06-12 22:00:00,
2013-06-12 14:43:00,69.0,-99.9,-100.00,North,-999,-999.0,-999.0,-999,0.10,,,-99.99,,2013-06-12 22:43:00,
2013-06-12 14:53:00,69.0,-99.9,-100.00,North,-999,-999.0,-999.0,-999,0.10,,,-99.99,,2013-06-12 22:53:00,
2013-06-12 15:43:00,71.0,-99.9,-100.00,North,-999,-999.0,-999.0,-999,0.00,,,1.00,,2013-06-12 23:43:00,
2013-06-12 16:00:00,70.0,-99.9,-100.00,North,-999,-999.0,-999.0,-999,-99.99,,,0.90,,2013-06-13 00:00:00,
2013-06-12 16:43:00,70.0,-99.9,-100.00,North,-999,-999.0,-999.0,-999,-99.99,,,0.90,,2013-06-13 00:43:00,
2013-06-12 16:52:00,70.0,-99.9,-100.00,North,-999,-999.0,-999.0,-999,-99.99,,,0.90,,2013-06-13 00:52:00,
2013-06-12 17:00:00,68.0,-99.9,-100.00,North,-999,-999.0,-999.0,-999,-99.99,,,1.00,,2013-06-13 01:00:00,
2013-06-12 17:43:00,68.0,-99.9,-100.00,North,-999,-999.0,-999.0,-999,-99.99,,,1.00,,2013-06-13 01:43:00,
2013-06-12 17:53:00,68.0,-99.9,-100.00,North,-999,-999.0,-999.0,-999,-99.99,,,1.00,,2013-06-13 01:53:00,
2013-06-12 18:00:00,65.0,-99.9,-100.00,North,-999,-999.0,-999.0,-999,0.00,,,0.90,,2013-06-13 02:00:00,
2013-06-12 18:43:00,65.0,-99.9,-100.00,North,-999,-999.0,-999.0,-999,0.00,,,0.90,,2013-06-13 02:43:00,
2013-06-12 18:52:00,65.0,-99.9,-100.00,North,-999,-999.0,-999.0,-999,0.00,,,0.90,,2013-06-13 02:52:00,
2013-06-12 19:00:00,62.0,-99.9,-100.00,North,-999,-999.0,-999.0,-999,0.10,,,1.00,,2013-06-13 03:00:00,
2013-06-12 19:43:00,62.0,-99.9,-100.00,North,-999,-999.0,-999.0,-999,0.10,,,1.00,,2013-06-13 03:43:00,
2013-06-12 19:52:00,62.0,-99.9,-100.00,North,-999,-999.0,-999.0,-999,0.10,,,1.00,,2013-06-13 03:52:00,
2013-06-12 20:00:00,59.0,-99.9,-100.00,North,-999,-999.0,-999.0,-999,0.00,,,1.00,,2013-06-13 04:00:00,
2013-06-12 20:43:00,59.0,-99.9,-100.00,North,-999,-999.0,-999.0,-999,0.00,,,1.00,,2013-06-13 04:43:00,
2013-06-12 20:54:00,59.0,-99.9,-100.00,North,-999,-999.0,-999.0,-999,0.00,,,1.00,,2013-06-13 04:54:00,
2013-06-12 21:00:00,54.0,-99.9,-100.00,North,-999,-999.0,-999.0,-999,0.00,,,0.90,,2013-06-13 05:00:00,
2013-06-12 21:43:00,54.0,-99.9,-100.00,North,-999,-999.0,-999.0,-999,0.00,,,0.90,,2013-06-13 05:43:00,
2013-06-12 21:53:00,54.0,-99.9,-100.00,North,-999,-999.0,-999.0,-999,0.00,,,0.90,,2013-06-13 05:53:00,
2013-06-12 22:00:00,54.0,-99.9,-100.00,North,-999,-999.0,-999.0,-999,0.10,,,-99.99,,2013-06-13 06:00:00,
2013-06-12 22:44:00,54.0,-99.9,-100.00,North,-999,-999.0,-999.0,-999,0.10,,,-99.99,,2013-06-13 06:44:00,
2013-06-12 22:53:00,54.0,-99.9,-100.00,North,-999,-999.0,-999.0,-999,0.10,,,-99.99,,2013-06-13 06:53:00,
2013-06-12 23:00:00,51.0,-99.9,-100.00,North,-999,-999.0,-999.0,-999,0.00,,,0.90,,2013-06-13 07:00:00,
2013-06-12 23:43:00,51.0,-99.9,-100.00,North,-999,-999.0,-999.0,-999,0.00,,,0.90,,2013-06-13 07:43:00,
2013-06-12 23:52:00,51.0,-99.9,-100.00,North,-999,-999.0,-999.0,-999,0.00,,,0.90,,2013-06-13 07:52:00,